Regional Weather Roundup
Issued by NWS

Home | Current Version | Previous Version | Text Only | Print | Product List | Glossary Off
Versions: 1 2 3 4 5 6 7 8 9 10 11 12 13 14 15 16 17 18 19 20 21 22 23 24 25 26 27 28 29 30 31 32 33 34 35 36 37 38 39 40 41 42 43 44 45 46 47 48 49 50

000
ASUS43 KBIS 250910
RWRND

NORTH DAKOTA REGIONAL WEATHER ROUNDUP
NATIONAL WEATHER SERVICE BISMARCK ND
400 AM CDT TUE APR 25 2017

NOTE: "FAIR" INDICATES FEW OR NO CLOUDS BELOW 12,000 FEET WITH NO
SIGNIFICANT WEATHER AND/OR OBSTRUCTIONS TO VISIBILITY.


NDZ001>003-009>011-017-251000-
NORTHWEST NORTH DAKOTA

CITY           SKY/WX    TMP DP  RH WIND       PRES   REMARKS
WILLISTON      CLOUDY    31  24  75 NE15      29.86S
MINOT          CLOUDY    31  26  82 N12       29.82S
MINOT AFB      CLOUDY    30  25  80 NE16      29.83R WCI  19
$$

NDZ018>021-031>035-040>046-251000-
SOUTHWEST NORTH DAKOTA

CITY           SKY/WX    TMP DP  RH WIND       PRES   REMARKS
BISMARCK       CLOUDY    32  27  81 N15       29.77R
DICKINSON      CLOUDY    28  26  92 NE15      29.73F WCI  16
GARRISON         N/A     29  24  82 NE9G17    29.80R
HETTINGER ARPT LGT SNOW  29  26  89 NE15      29.74S FOG     WCI  18
$$

NDZ004>008-012>016-024-026-027-054-251000-
NORTHEAST NORTH DAKOTA

CITY           SKY/WX    TMP DP  RH WIND       PRES   REMARKS
GRAND FORKS    CLOUDY    32  30  92 N18       29.73R
GRND FRKS AFB  CLOUDY    30  28  92 N20       29.73S WCI  18
DEVILS LAKE    CLOUDY    29  26  89 N16       29.77R WCI  17
$$

NDZ022-023-025-028>030-036>039-047>053-251000-
SOUTHEAST NORTH DAKOTA

CITY           SKY/WX    TMP DP  RH WIND       PRES   REMARKS
FARGO          CLOUDY    33  32  96 N24G30    29.66R
JAMESTOWN      CLOUDY    31  29  92 N17       29.70S WCI  19
$$





USA.gov is the U.S. government's official web portal to all federal, state and local government web resources and services.